Aérodrome :
LOGIN :

S'inscrire | Disclaimer

   EN    FR    IT 

 










Légende :    VFR   VFR Marginal   IFR   IFR Intensif   IFR Très Intensif
Visi : 
Plafond : 
>= 8 km
>= 3000ft
5 à 8 km
1000 à 3000 ft
1500m à 5 km
500 à 1000 ft
800 à 1500m
200 à 500 ft
< 800m
< 200 ft
Symboles :   Orages  Brouillard  Fortes neiges  Fortes précipitations  Vent > 20 kt
SIGMETs :   Divers  Orages  Givrage  Turbulence  Onde Orograph.  Cendres Volcan.






- Altitude de l'aérodrome : 187 ft


LPMR - Monte Real Air Base

DERNIER METAR :
  • 270600Z 16004KT 4000 BR FEW008 SCT019 14/14 Q1022

METARs EXPIRÉS :
  • 270500Z 16004KT 1300 BR SCT003 SCT017 14/14 Q1022
  • 270400Z 16003KT 0800 FG BKN002 14/14 Q1022

TAF AMD TAF LPMR
Valide du 27 à 06h jusqu'au 28 à 06h UTC


270603Z 2706/2806 VRB02KT 4000 BR FEW008 SCT019
PROB40 2706/2708 0200 FG BKN002
BECMG 2708/2710 24008KT 9999 NSW BKN020
TEMPO 2712/2718 4000 -RADZ SCT004 BKN009
BECMG 2714/2716 35008KT
TEMPO 2722/2803 SCT009



MET'MAP, la Météo Aéronautique d'un coup d'oeil ! - Copyright ORBIFLY Décembre 2007 - Disclaimer

ORBIFLY MET'MAP TEAM :

Programmation & Développement : Alexandra Zaïnal
Sur une idée originale de : Baudouin d'Aumeries
Assistance à la programmation : Marc-Olivier Méhu
Soutien technique & logistique : Manuel Goepfert

Contact : metmap@orbifly.com




SOURCES & CREDITS :

   NOAA